WetterOnline ( https://www.wetteronline.de )

Wetter aktuell Mühldorf

Aktuelles Wetter: Mühldorf am Inn (410m)

6-stündlich | Neueste Meldungen
Ortszeit Temperatur Wetter
Mo, 27.05. 2:00 9.7° C wolkenlos
So, 26.05. 20:00 21.2° C wolkenlos
So, 26.05. 14:00 19.7° C wolkig
So, 26.05. 8:00 13.2° C bedeckt
So, 26.05. 2:00 12.2° C bedeckt
Sa, 25.05. 20:00 17.1° C leichter Regen
Sa, 25.05. 14:00 21.2° C bedeckt
Sa, 25.05. 8:00 13.2° C fast wolkenlos
Ortszeit Temperatur Wetter
Mo, 27.05. 5:00 8.9° C leicht bewölkt
Mo, 27.05. 4:50 8.9° C leicht bewölkt
Mo, 27.05. 4:40 8.3° C leicht bewölkt
Mo, 27.05. 4:30 8.6° C fast wolkenlos
Mo, 27.05. 4:20 8.6° C fast wolkenlos
Mo, 27.05. 4:10 7.9° C fast wolkenlos
Mo, 27.05. 4:00 8.6° C fast wolkenlos
Mo, 27.05. 3:30 9.2° C leicht bewölkt
Mo, 27.05. 3:00 9.2° C wolkenlos
Mo, 27.05. 2:30 9.2° C wolkenlos
Mo, 27.05. 2:00 9.7° C wolkenlos
Ortszeit Relative Feuchte Sichtweite
Mo, 27.05. 2:00 95% 15 km
So, 26.05. 20:00 48% 60 km
So, 26.05. 14:00 55% 21 km
So, 26.05. 8:00 88% 20 km
So, 26.05. 2:00 92% 11 km
Sa, 25.05. 20:00 67% 25 km
Sa, 25.05. 14:00 43% 27 km
Sa, 25.05. 8:00 80% 10 km
Ortszeit Relative Feuchte Sichtweite
Mo, 27.05. 5:00 100% 3.4 km
Mo, 27.05. 4:50 100% -
Mo, 27.05. 4:40 97% -
Mo, 27.05. 4:30 98% 5.0 km
Mo, 27.05. 4:20 98% -
Mo, 27.05. 4:10 97% -
Mo, 27.05. 4:00 95% 18 km
Mo, 27.05. 3:30 98% 8 km
Mo, 27.05. 3:00 99% 4.1 km
Mo, 27.05. 2:30 98% 6 km
Mo, 27.05. 2:00 95% 15 km
Ortszeit Niederschlagsmenge Niederschlagsart
Mo, 27.05. 2:00 0.0 l/m2 in 6 Std. -
So, 26.05. 20:00 0.0 l/m2 in 12 Std. -
So, 26.05. 14:00 0.0 l/m2 in 6 Std. -
So, 26.05. 8:00 0.1 l/m2 in 12 Std. Regen
So, 26.05. 2:00 0.1 l/m2 in 6 Std. Regen
Sa, 25.05. 20:00 0.1 l/m2 in 12 Std. Regen
Sa, 25.05. 14:00 0.0 l/m2 in 6 Std. -
Sa, 25.05. 8:00 0.0 l/m2 in 12 Std. -
Ortszeit Niederschlagsmenge Niederschlagsart
Mo, 27.05. 5:00 0.0 l/m2 in 1 Std. -
Mo, 27.05. 4:50 keine Meldung -
Mo, 27.05. 4:40 keine Meldung -
Mo, 27.05. 4:30 0.0 l/m2 in 1 Std. -
Mo, 27.05. 4:20 keine Meldung -
Mo, 27.05. 4:10 keine Meldung -
Mo, 27.05. 4:00 0.0 l/m2 in 1 Std. -
Mo, 27.05. 3:30 0.0 l/m2 in 1 Std. -
Mo, 27.05. 3:00 0.0 l/m2 in 1 Std. -
Mo, 27.05. 2:30 0.0 l/m2 in 1 Std. -
Mo, 27.05. 2:00 0.0 l/m2 in 1 Std. -
Ortszeit Stärke Spitze Richtung
km/h Bft. km/h Grad Sektor
Mo, 27.05. 2:00 2 1 6 210° SW
So, 26.05. 20:00 4 1 18 300° NW
So, 26.05. 14:00 7 2 18 250° W
So, 26.05. 8:00 7 2 14 260° W
So, 26.05. 2:00 7 2 22 280° W
Sa, 25.05. 20:00 13 3 24 250° W
Sa, 25.05. 14:00 7 2 19 340° N
Sa, 25.05. 8:00 4 1 7 90° O
Ortszeit Stärke Spitze Richtung
km/h Bft. km/h Grad Sektor
Mo, 27.05. 5:00 4 1 4 200° S
Mo, 27.05. 4:50 4 1 - 200° S
Mo, 27.05. 4:40 4 1 - 270° W
Mo, 27.05. 4:30 4 1 4 280° W
Mo, 27.05. 4:20 4 1 - 280° W
Mo, 27.05. 4:10 4 1 - 300° NW
Mo, 27.05. 4:00 0 0 4 - -
Mo, 27.05. 3:30 0 0 4 - -
Mo, 27.05. 3:00 4 1 4 290° W
Mo, 27.05. 2:30 2 1 4 280° W
Mo, 27.05. 2:00 2 1 6 210° SW
Ortszeit Untergrenze Bedeckung Gattung
total tief tief mittel hoch
Mo, 27.05. 2:00 - 0/8 0/8 - - -
So, 26.05. 20:00 - 0/8 0/8 - - -
So, 26.05. 14:00 1200 m 5/8 5/8 - - -
So, 26.05. 8:00 1800 m 8/8 8/8 - - -
So, 26.05. 2:00 2700 m 8/8 8/8 - - -
Sa, 25.05. 20:00 1500 m 8/8 8/8 - - -
Sa, 25.05. 14:00 3000 m 8/8 8/8 - - -
Sa, 25.05. 8:00 9000 m 1/8 0/8 - - -
Ortszeit Bedeckungsgrad in Achtel und Wolkenuntergrenze
Mo, 27.05. 5:00 3(9000m)
Mo, 27.05. 4:50 3(9000m)
Mo, 27.05. 4:40 3(9000m)
Mo, 27.05. 4:30 2(9000m)
Mo, 27.05. 4:20 2(9000m)
Mo, 27.05. 4:10 1(9000m)
Mo, 27.05. 4:00 1(9000m)
Mo, 27.05. 3:30 3(9000m) 5(10500m)
Mo, 27.05. 3:00 keine Wolken
Mo, 27.05. 2:30 keine Wolken
Mo, 27.05. 2:00 keine Wolken
Ortszeit Luftdruck NN (hPa) Tendenz (hPa in 3 Std.)
Mo, 27.05. 2:00 1014 - 0,6
So, 26.05. 20:00 1012 - 1,0
So, 26.05. 14:00 1015 - 1,2
So, 26.05. 8:00 1017 + 0,5
So, 26.05. 2:00 1017 + 0,1
Sa, 25.05. 20:00 1014 + 1,0
Sa, 25.05. 14:00 1013 - 0,8
Sa, 25.05. 8:00 1015 + 0,6
Ortszeit Luftdruck NN (hPa) Tendenz (hPa in 3 Std.)
Mo, 27.05. 5:00 1013 - 0,9
Mo, 27.05. 4:50 1013 keine Meldung
Mo, 27.05. 4:40 1013 keine Meldung
Mo, 27.05. 4:30 1013 - 0,9
Mo, 27.05. 4:20 1013 keine Meldung
Mo, 27.05. 4:10 1013 keine Meldung
Mo, 27.05. 4:00 1013 - 1,0
Mo, 27.05. 3:30 1013 - 1,0
Mo, 27.05. 3:00 1014 - 1,0
Mo, 27.05. 2:30 1014 - 0,8
Mo, 27.05. 2:00 1014 - 0,6
Ortszeit Schneehöhe (cm)
Mo, 27.05. 2:00 -
So, 26.05. 20:00 -
So, 26.05. 14:00 -
So, 26.05. 8:00 -
So, 26.05. 2:00 -
Sa, 25.05. 20:00 -
Sa, 25.05. 14:00 -
Sa, 25.05. 8:00 -
Ortszeit Schneehöhe (cm)
Mo, 27.05. 5:00 -
Mo, 27.05. 4:50 -
Mo, 27.05. 4:40 -
Mo, 27.05. 4:30 -
Mo, 27.05. 4:20 -
Mo, 27.05. 4:10 -
Mo, 27.05. 4:00 -
Mo, 27.05. 3:30 -
Mo, 27.05. 3:00 -
Mo, 27.05. 2:30 -
Mo, 27.05. 2:00 -
Link zu dieser Seite / Seite empfehlen

Das Wetter in ...